Location: ??????
(41.3164°N, 22.6615°E)
Time: 14:19:29
(UTC+00:00)

H-2A R/B - Pass Details

Date: 31 May 2022
Orbit: 576 x 653 km, 98.5° (Epoch: 30 June)

Event Time Altitude Azimuth Distance (km) Brightness Sun altitude
Rises 18:46:47 0° 11° (N) 2,800 5.8 -8.7°
Reaches altitude 10° 18:48:56 10° 10° (N) 1,900 5.0 -9.0°
Maximum altitude 18:53:01 75° 285° (WNW) 607 2.2 -9.6°
Drops below altitude 10° 18:57:09 10° 200° (SSW) 1,913 4.4 -10.2°
Sets 18:59:19 0° 199° (SSW) 2,820 5.2 -10.5°
